Location: Stonelick Lake State Park
(39.2170°N, 84.0850°W)
Time: 13:23:19
(UTC-04:00)

Daily predictions for brighter satellites

Satellite Brightness Start Highest point End
(mag) Time Altitude Azimuth Time Altitude Azimuth Time Altitude Azimuth
Cosmos 1908 3.5 19:07:11 10° SSE 19:10:56 48° E 19:14:42 10° NNE
PSLV R/B 3.9 19:08:51 10° SW 19:11:47 37° SSE 19:14:42 10° E
SPOT 3 Rocket 4.2 19:07:18 10° SE 19:11:55 34° ENE 19:16:35 10° N
Cosmos 1703 3.2 19:08:56 10° N 19:12:53 84° E 19:16:46 10° S
Cosmos 2221 2.9 19:09:08 10° SSE 19:13:12 42° E 19:17:19 10° NNE
Cosmos 2237 Rocket 3.7 19:09:39 10° N 19:13:23 17° NE 19:17:05 10° E
Cosmos 2237 4.2 19:08:11 10° NNW 19:13:56 72° ENE 19:19:38 10° SSE
Delta 2 Rocket 4.1 19:11:27 10° W 19:15:27 44° S 19:19:01 10° ESE
Cosmos 921 Rocket 3.0 19:13:26 10° NNW 19:17:53 81° ENE 19:22:12 10° SSE
Cosmos 2227 Rocket 3.5 19:16:20 10° SE 19:20:09 19° E 19:23:57 10° ENE
CZ-2C R/B 3.8 19:19:06 10° N 19:23:36 79° WNW 19:28:01 10° SSW
Cosmos 1743 Rocket 4.4 19:20:36 10° NNW 19:24:55 56° W 19:29:15 10° S
SKYMED 2 3.7 19:21:41 10° NNE 19:25:56 51° E 19:30:09 10° S
Cosmos 2098 Rocket 3.9 19:22:06 10° SSE 19:26:35 43° E 19:32:13 10° NNE
Cosmos 158 Rocket 4.0 19:21:33 10° SSW 19:26:37 88° ESE 19:31:52 10° NNE
Cosmos 1300 3.7 19:29:13 10° SE 19:32:23 25° E 19:35:34 10° NE
GP-B 3.4 19:28:14 10° N 19:32:40 71° W 19:37:04 10° S
Cosmos 2360 Rocket 3.2 19:27:38 10° NNW 19:33:07 52° WSW 19:38:34 10° S
RESURS DK-1 4.3 19:30:28 10° NW 19:34:14 34° WSW 19:37:57 10° S
Cosmos 1727 Rocket 4.4 19:28:20 10° NNW 19:34:39 71° W 19:40:55 10° S
BREEZE-M DEB (TANK) 2.6 19:33:03 10° WNW 19:35:00 33° SW 19:36:59 10° SSE
APEX 3.6 19:32:59 10° SW 19:36:00 46° WNW 19:38:43 10° NNE
Atlas Centaur 2 4.0 19:34:21 10° SW 19:36:41 15° SSW 19:39:15 10° SSE
Gbstr 26 Del rocket 3.6 19:32:27 10° NW 19:37:21 66° NE 19:43:27 10° ESE
Cosmos 1048 Rocket 4.0 19:33:40 10° SSW 19:38:48 87° WNW 19:43:57 10° NNE
ALOS 2.6 19:35:10 10° SE 19:39:31 41° ENE 19:43:55 10° N
FENGYUN 3A 3.9 19:36:50 10° SE 19:41:56 45° ENE 19:47:04 10° N
Meteor 2-10 4.4 19:38:47 10° SSE 19:43:25 38° E 19:48:10 10° NNE
Cosmos 1420 Rocket 4.5 19:41:10 10° NNW 19:46:27 66° WSW 19:51:38 10° S
Abrixas 3.8 19:45:06 10° WNW 19:46:46 19° NNW 19:47:49 14° NNE
Cosmos 2123 Rocket 4.4 19:43:31 10° N 19:49:23 40° ENE 19:55:14 10° SE
Cosmos 2251 Rocket 4.4 19:45:07 10° SSE 19:49:33 28° E 19:54:01 10° NE
COSMOS 2428 2.8 19:45:09 10° NNW 19:50:51 85° WSW 19:56:33 10° SSE
Cosmos 1605 Rocket 4.5 19:46:12 10° SSE 19:51:34 34° E 19:56:58 10° NNE
Cosmos 2219 3.4 19:46:18 10° SSW 19:52:02 80° WNW 19:57:49 10° NNE
ERS-2 3.8 19:49:03 10° SSW 19:52:29 37° W 19:55:57 10° NNW
Cosmos 2333 Rocket 2.4 19:47:58 10° NNW 19:53:36 53° ENE 19:59:12 10° SE
NOSS 0 Rocket 4.1 19:49:44 10° NNW 19:55:43 50° ENE 20:01:40 10° SE
Cosmos 2297 Rocket 2.8 19:52:00 10° SSE 19:56:56 32° ESE 20:00:57 14° NE
Cosmos 1726 2.0 19:53:58 10° S 19:57:40 90° E 20:01:22 10° N
Hubble Space Telescope 2.9 19:56:07 10° SSW 19:58:38 16° S 20:00:30 12° SE
NOAA 12 4.0 20:00:13 10° SSE 20:05:31 82° ENE 20:10:52 10° NNW
Sich 1 3.0 20:01:14 10° N 20:05:36 60° E 20:09:57 10° SSE
USA 267 4.4 20:04:43 19° ESE 20:05:38 20° ESE 20:10:11 10° SSE
Cosmos 2082 4.1 20:03:04 10° S 20:08:20 40° ESE 20:12:12 17° NE
Thor Agena Rocket 3.5 20:07:17 10° NNE 20:12:17 58° ESE 20:17:14 10° S
Cosmos 1331 Rocket 4.0 20:07:41 10° N 20:12:48 54° ENE 20:16:38 17° SE
COSMO-SKYMED 1 3.7 20:09:47 10° N 20:13:56 44° WNW 20:18:02 10° SW
Resurs 01 Rocket 3.9 20:21:18 11° NNE 20:21:18 11° NNE 20:21:29 10° NNE
Cosmos 2219 Rocket 2.2 20:13:33 10° NNW 20:19:10 81° WSW 20:24:46 10° SSE
Cosmos 1805 Rocket 4.4 20:19:41 10° NNW 20:23:59 52° W 20:28:16 10° S
Abrixas rocket 3.7 20:21:34 10° NW 20:23:56 26° N 20:23:56 26° N
FengYun 1-2 T 4.1 20:21:17 10° SSE 20:26:43 67° ENE 20:32:10 10° N
BREEZE-M DEB (TANK) 3.6 20:19:29 10° WNW 20:28:34 44° N 20:29:58 33° NE
CZ-4C R/B 3.5 20:24:12 10° WSW 20:29:03 38° NW 20:34:35 10° NNE
Aureole 2 Rocket 4.1 20:26:19 10° NW 20:30:05 40° WSW 20:33:55 10° S
Cosmos 2228 Rocket 3.1 20:28:50 10° S 20:33:17 60° E 20:34:24 45° NE
Cosmos 1666 Rocket 3.8 20:29:18 10° NNW 20:33:36 66° W 20:37:51 10° S
Cosmos 1328 Rocket 3.4 20:30:41 10° S 20:35:04 79° E 20:39:28 10° N
Meteor 2-2 Rocket 4.1 20:31:14 10° S 20:36:55 90° W 20:42:36 10° N
Cosmos 1633 Rocket 3.2 20:32:55 10° N 20:37:21 74° W 20:41:45 10° S
BREEZE-M R/B 2.9 20:36:53 10° WSW 20:39:12 56° WNW 20:39:12 56° WNW
Cosmos 1302 Rocket 4.0 20:37:50 10° N 20:42:54 57° ENE 20:42:54 57° ENE
Meteor 1-27 4.1 20:42:03 10° S 20:47:42 67° E 20:53:28 10° NNE
Cosmos 494 Rocket 4.5 20:43:54 10° SSW 20:48:55 58° WNW 20:53:58 10° N
Cosmos 2084 4.4 20:45:57 10° NW 20:49:32 40° WSW 20:50:20 35° SSW
SJ-6B 4.5 20:56:40 25° NNW 20:56:40 25° NNW 20:58:19 10° NNW
H-2A R/B 3.5 20:55:28 49° WSW 20:55:52 52° W 20:59:43 10° NNW
Cosmos 2237 Rocket 2.3 20:52:21 10° NNW 20:58:03 73° WSW 21:00:17 38° S
MOS 1-B Rocket 3.7 21:03:12 74° ESE 21:03:37 78° ENE 21:09:50 10° N
Cosmos 2227 Rocket 2.7 20:58:07 10° SW 21:03:39 57° WNW 21:08:05 16° N
SL-16 R/B 2.9 21:06:05 10° NNW 21:09:56 41° N 21:09:56 41° N
USA 32 4.3 21:07:48 10° N 21:13:00 65° W 21:13:51 56° SW
Meteor 2-3 Rocket 4.4 21:30:16 10° NNW 21:35:43 51° W 21:35:43 51° W
Cosmos 2333 Rocket 4.5 21:33:14 10° NW 21:37:24 21° W 21:41:34 10° SSW
Cosmos 2297 Rocket 3.6 21:35:47 10° SW 21:40:53 34° WNW 21:42:52 27° NNW
BREEZE-M DEB (TANK) 4.0 21:33:21 10° WNW 21:42:21 53° W 21:42:21 53° W
USA 267 4.3 21:52:07 36° SW 21:52:07 36° SW 21:55:43 10° SW
